KB9ZI Weather Reports


time (UTC)temp
C
wind
direction
speed
KPH
gust
KPH
rain 1hr
cm
rain 24hr
cm
rain mn
cm
humidity
%
barometer
mb
20260506205117 7 240 0.0 9.7 0.00 0.00 0.00 56 1016.1
20260506205107 7 240 0.0 11.3 0.00 0.00 0.00 56 1016.1
20260506204838 7 240 0.0 11.3 0.00 0.00 0.00 56 1016.1
20260506204639 7 279 0.0 11.3 0.00 0.00 0.00 55 1016.1
20260506204604 7 127 0.0 11.3 0.00 0.00 0.00 59 1016.2
20260506204437 7 248 0.0 11.3 0.00 0.00 0.00 57 1016.1
20260506204337 7 233 0.0 11.3 0.00 0.00 0.00 56 1016.0
20260506204103 7 214 0.0 9.7 0.00 0.00 0.00 57 1016.1
20260506204041 7 265 0.0 9.7 0.00 0.00 0.00 56 1016.1
20260506203834 7 227 0.0 9.7 0.00 0.00 0.00 59 1016.1
20260506203635 7 223 0.0 9.7 0.00 0.00 0.00 59 1016.1
20260506203603 7 223 0.0 9.7 0.00 0.00 0.00 59 1016.1
20260506203436 7 223 0.0 11.3 0.00 0.00 0.00 59 1016.1
20260506203224 6 237 0.0 16.1 0.00 0.00 0.00 59 1016.0
20260506203102 6 235 0.0 16.1 0.00 0.00 0.00 58 1016.0
20260506203024 6 254 0.0 16.1 0.00 0.00 0.00 58 1016.0
20260506202901 6 248 0.0 16.1 0.00 0.00 0.00 59 1016.1
20260506202849 6 271 0.0 16.1 0.00 0.00 0.00 58 1016.0
20260506202423 6 228 0.0 16.1 0.00 0.00 0.00 58 1016.0
20260506202222 6 243 0.0 16.1 0.00 0.00 0.00 57 1016.1
20260506202101 7 257 0.0 16.1 0.00 0.00 0.00 58 1016.1
20260506202029 7 234 0.0 16.1 0.00 0.00 0.00 58 1016.1
20260506201824 6 261 0.0 6.4 0.00 0.00 0.00 58 1016.1
20260506201602 6 261 0.0 6.4 0.00 0.00 0.00 58 1016.2
20260506201424 6 261 0.0 6.4 0.00 0.00 0.00 58 1016.1
20260506201303 6 219 0.0 8.0 0.00 0.00 0.00 59 1016.1
20260506201101 6 235 0.0 8.0 0.00 0.00 0.00 58 1016.2
20260506201011 6 234 0.0 8.0 0.00 0.00 0.00 59 1016.2
20260506200807 6 234 0.0 8.0 0.00 0.00 0.00 59 1016.2
20260506200603 6 237 0.0 8.0 0.00 0.00 0.00 59 1016.2
20260506200403 6 268 0.0 6.4 0.00 0.00 0.00 59 1016.2
20260506200203 6 235 0.0 8.0 0.00 0.00 0.00 59 1016.2
20260506200005 6 234 0.0 9.7 0.00 0.00 0.00 59 1016.2
20260506195802 6 245 0.0 9.7 0.00 0.00 0.00 59 1016.2
20260506195711 6 257 0.0 9.7 0.00 0.00 0.00 61 1016.2
20260506195604 6 257 0.0 9.7 0.00 0.00 0.00 61 1016.2
20260506195352 6 257 0.0 14.5 0.00 0.00 0.00 61 1016.1
20260506195152 6 262 0.0 16.1 0.00 0.00 0.00 60 1016.2
20260506195101 6 258 0.0 16.1 0.00 0.00 0.00 59 1016.2
20260506194932 6 255 0.0 16.1 0.00 0.00 0.00 59 1016.2
20260506194733 6 269 0.0 16.1 0.00 0.00 0.00 60 1016.2
20260506194601 6 241 0.0 16.1 0.00 0.00 0.00 59 1016.2
20260506194523 6 223 0.0 16.1 0.00 0.00 0.00 60 1016.2
20260506194322 6 231 0.0 16.1 0.00 0.00 0.00 59 1016.2
20260506194123 6 240 0.0 16.1 0.00 0.00 0.00 58 1016.2
20260506194102 6 238 0.0 14.5 0.00 0.00 0.00 58 1016.2
20260506194020 6 245 0.0 14.5 0.00 0.00 0.00 57 1016.2
20260506193721 6 230 0.0 14.5 0.00 0.00 0.00 57 1016.2
20260506193605 6 230 0.0 14.5 0.00 0.00 0.00 57 1016.2
20260506193521 6 230 0.0 14.5 0.00 0.00 0.00 57 1016.2
20260506193320 6 264 0.0 14.5 0.00 0.00 0.00 57 1016.1
20260506193101 6 227 0.0 9.7 0.00 0.00 0.00 59 1016.2
20260506192921 6 241 0.0 9.7 0.00 0.00 0.00 58 1016.2
20260506192825 7 285 0.0 4.8 0.00 0.00 0.00 58 1016.2
20260506192602 7 285 0.0 8.0 0.00 0.00 0.00 58 1016.3
20260506192522 7 285 0.0 9.7 0.00 0.00 0.00 58 1016.3
20260506192307 7 285 0.0 9.7 0.00 0.00 0.00 58 1016.2
20260506192106 7 285 0.0 9.7 0.00 0.00 0.00 58 1016.3
20260506191906 7 285 0.0 9.7 0.00 0.00 0.00 58 1016.3
20260506191707 7 261 0.0 9.7 0.00 0.00 0.00 58 1016.3
20260506191535 7 266 0.0 17.7 0.00 0.00 0.00 59 1016.3
20260506191506 7 261 0.0 17.7 0.00 0.00 0.00 60 1016.3
20260506191305 6 252 0.0 19.3 0.00 0.00 0.00 58 1016.3
20260506191209 6 258 0.0 19.3 0.00 0.00 0.00 57 1016.3
20260506191034 6 282 0.0 19.3 0.00 0.00 0.00 57 1016.2
20260506190905 6 288 0.0 19.3 0.00 0.00 0.00 60 1016.2
20260506190708 6 247 0.0 24.1 0.00 0.00 0.00 58 1016.3
20260506190535 6 234 0.0 24.1 0.00 0.00 0.00 57 1016.3
20260506190508 6 244 0.0 24.1 0.00 0.00 0.00 59 1016.3
20260506190338 6 265 0.0 24.1 0.00 0.00 0.00 60 1016.3
20260506190330 6 247 0.0 24.1 0.00 0.00 0.00 59 1016.3
20260506190300 6 265 0.0 24.1 0.00 0.00 0.00 58 1016.3
20260506185903 6 240 0.0 24.1 0.00 0.00 0.00 59 1016.2
20260506185704 6 223 0.0 20.9 0.00 0.00 0.00 59 1016.2
20260506185532 6 268 0.0 20.9 0.00 0.00 0.00 60 1016.3
20260506185454 6 268 0.0 20.9 0.00 0.00 0.00 60 1016.3
20260506185332 6 274 0.0 20.9 0.00 0.00 0.00 59 1016.3
20260506185320 6 265 0.0 20.9 0.00 0.00 0.00 58 1016.2
20260506185251 6 290 0.0 20.9 0.00 0.00 0.00 59 1016.3
20260506184855 6 227 0.0 19.3 0.00 0.00 0.00 60 1016.3
20260506184654 6 254 0.0 20.9 0.00 0.00 0.00 60 1016.2
20260506184528 6 226 0.0 20.9 0.00 0.00 0.00 61 1016.2
20260506184449 6 251 0.0 20.9 0.00 0.00 0.00 60 1016.3
20260506184423 6 244 0.0 20.9 0.00 0.00 0.00 58 1016.4
20260506184332 6 220 0.0 20.9 0.00 0.00 0.00 56 1016.4
20260506184253 6 243 0.0 20.9 0.00 0.00 0.00 56 1016.4
20260506183848 7 240 0.0 20.9 0.00 0.00 0.00 58 1016.3
20260506183647 7 258 0.0 17.7 0.00 0.00 0.00 59 1016.3
20260506183511 7 245 0.0 17.7 0.00 0.00 0.00 59 1016.3
20260506183442 7 245 0.0 17.7 0.00 0.00 0.00 59 1016.3
20260506183316 6 333 0.0 17.7 0.00 0.00 0.00 58 1016.4
20260506183303 6 226 0.0 17.7 0.00 0.00 0.00 60 1016.4
20260506183235 6 313 0.0 17.7 0.00 0.00 0.00 58 1016.4
20260506182833 6 261 0.0 17.7 0.00 0.00 0.00 60 1016.3
20260506182731 6 237 0.0 17.7 0.00 0.00 0.00 61 1016.3
20260506182506 6 238 0.0 17.7 0.00 0.00 0.00 60 1016.3
20260506182437 6 248 0.0 17.7 0.00 0.00 0.00 60 1016.3
20260506182235 6 206 0.0 17.7 0.00 0.00 0.00 59 1016.3
20260506182039 6 262 0.0 17.7 0.00 0.00 0.00 60 1016.3
20260506182003 6 262 0.0 17.7 0.00 0.00 0.00 60 1016.4
20260506181834 6 262 0.0 17.7 0.00 0.00 0.00 60 1016.4
20260506181631 6 245 0.0 17.7 0.00 0.00 0.00 60 1016.4
20260506181430 6 259 0.0 17.7 0.00 0.00 0.00 60 1016.4
20260506181232 6 254 0.0 17.7 0.00 0.00 0.00 59 1016.5
20260506181030 6 296 0.0 16.1 0.00 0.00 0.00 59 1016.4
20260506180931 6 210 0.0 16.1 0.00 0.00 0.00 58 1016.4
20260506180830 6 255 0.0 16.1 0.00 0.00 0.00 59 1016.5
20260506180630 6 217 0.0 11.3 0.00 0.00 0.00 59 1016.5
20260506180431 6 252 0.0 11.3 0.00 0.00 0.00 59 1016.5
20260506180232 6 262 0.0 11.3 0.00 0.00 0.00 59 1016.5
20260506180131 6 254 0.0 11.3 0.00 0.00 0.00 59 1016.5
20260506175932 6 269 0.0 9.7 0.00 0.00 0.00 57 1016.6
20260506175831 6 241 0.0 9.7 0.00 0.00 0.00 57 1016.5
20260506175633 6 224 0.0 9.7 0.00 0.00 0.00 58 1016.6
20260506175435 6 234 0.0 11.3 0.00 0.00 0.00 59 1016.5
20260506175234 6 234 0.0 11.3 0.00 0.00 0.00 59 1016.5
20260506175008 6 271 0.0 11.3 0.00 0.00 0.00 60 1016.4
20260506174906 6 303 0.0 11.3 0.00 0.00 0.00 60 1016.5
20260506174809 6 282 0.0 11.3 0.00 0.00 0.00 59 1016.5
20260506174607 6 258 0.0 11.3 0.00 0.00 0.00 61 1016.5
20260506174518 5 240 0.0 11.3 0.00 0.00 0.00 61 1016.5
20260506174410 5 240 0.0 11.3 0.00 0.00 0.00 61 1016.5
20260506174209 5 238 0.0 14.5 0.00 0.00 0.00 62 1016.5
20260506174012 5 227 0.0 14.5 0.00 0.00 0.00 60 1016.5
20260506173907 5 254 0.0 14.5 0.00 0.00 0.00 61 1016.5
20260506173809 5 254 0.0 16.1 0.00 0.00 0.00 61 1016.6
20260506173609 5 254 0.0 16.1 0.00 0.00 0.00 60 1016.6
20260506173405 5 254 0.0 16.1 0.00 0.00 0.00 60 1016.6
20260506173305 5 213 0.0 16.1 0.00 0.00 0.00 60 1016.7
20260506173005 5 251 0.0 16.1 0.00 0.00 0.00 61 1016.8
20260506172904 5 251 0.0 16.1 0.00 0.00 0.00 61 1016.7
20260506172805 5 230 0.0 16.1 0.00 0.00 0.00 61 1016.6
20260506172609 5 234 0.0 9.7 0.00 0.00 0.00 61 1016.7
20260506172412 5 234 0.0 9.7 0.00 0.00 0.00 61 1016.8
20260506172208 5 295 0.0 14.5 0.00 0.00 0.00 61 1016.7
20260506172010 5 0 0.0 16.1 0.00 0.00 0.00 60 1016.7
20260506171909 5 258 0.0 16.1 0.00 0.00 0.00 60 1016.8
20260506171809 5 223 0.0 19.3 0.00 0.00 0.00 60 1016.8
20260506171709 5 240 0.0 19.3 0.00 0.00 0.00 59 1016.8
20260506171408 5 248 0.0 19.3 0.00 0.00 0.00 60 1016.8
20260506171208 5 223 0.0 19.3 0.00 0.00 0.00 60 1016.8
20260506171009 5 251 0.0 19.3 0.00 0.00 0.00 60 1016.8
20260506170907 5 268 0.0 19.3 0.00 0.00 0.00 60 1016.8
20260506170808 5 247 0.0 9.7 0.00 0.00 0.00 60 1016.8
20260506170608 5 293 0.0 16.1 0.00 0.00 0.00 60 1016.8
20260506170408 5 266 0.0 16.1 0.00 0.00 0.00 61 1016.8
20260506170207 5 244 0.0 16.1 0.00 0.00 0.00 61 1016.8
20260506170113 5 240 0.0 16.1 0.00 0.00 0.00 64 1016.8
20260506165906 5 237 0.0 16.1 0.00 0.00 0.00 60 1016.8
20260506165805 5 235 0.0 16.1 0.00 0.00 0.00 59 1016.8
20260506165607 5 258 0.0 16.1 0.00 0.00 0.00 61 1016.9
20260506165408 5 224 0.0 14.5 0.00 0.00 0.00 62 1016.9
20260506165205 5 252 0.0 14.5 0.00 0.00 0.00 61 1016.8
20260506165009 5 252 0.0 11.3 0.00 0.00 0.00 60 1016.9
20260506164909 5 245 0.0 9.7 0.00 0.00 0.00 60 1016.7
20260506164809 5 230 0.0 9.7 0.00 0.00 0.00 60 1016.9
20260506164654 5 237 0.0 14.5 0.00 0.00 0.00 60 1016.9
20260506164647 5 237 0.0 14.5 0.00 0.00 0.00 60 1016.8
20260506164622 5 237 0.0 14.5 0.00 0.00 0.00 60 1016.9
20260506164308 5 255 0.0 14.5 0.00 0.00 0.00 61 1016.9
20260506164009 5 255 0.0 14.5 0.00 0.00 0.00 61 1016.8
20260506163907 5 254 0.0 14.5 0.00 0.00 0.00 61 1016.9
20260506163810 5 257 0.0 14.5 0.00 0.00 0.00 61 1016.9
20260506163656 5 233 0.0 16.1 0.00 0.00 0.00 62 1016.9
20260506163646 5 233 0.0 9.7 0.00 0.00 0.00 62 1016.9
20260506163623 5 233 0.0 16.1 0.00 0.00 0.00 62 1016.9
20260506163209 5 233 0.0 16.1 0.00 0.00 0.00 62 1016.8
20260506163012 5 234 0.0 16.1 0.00 0.00 0.00 60 1016.8
20260506162903 5 237 0.0 16.1 0.00 0.00 0.00 60 1016.9
20260506162810 5 237 0.0 16.1 0.00 0.00 0.00 60 1016.9
20260506162739 5 243 0.0 16.1 0.00 0.00 0.00 61 1016.9
20260506162649 5 228 0.0 8.0 0.00 0.00 0.00 60 1016.9
20260506162557 5 228 0.0 8.0 0.00 0.00 0.00 61 1016.9
20260506162208 5 261 0.0 8.0 0.00 0.00 0.00 60 1017.0
20260506162010 5 261 0.0 8.0 0.00 0.00 0.00 60 1016.9
20260506161811 5 248 0.0 6.4 0.00 0.00 0.00 60 1016.9
20260506161621 5 248 0.0 6.4 0.00 0.00 0.00 60 1016.8
20260506161405 5 0 0.0 6.4 0.00 0.00 0.00 61 1016.8
20260506161331 5 34 0.0 6.4 0.00 0.00 0.00 61 1016.9
20260506161206 5 223 0.0 6.4 0.00 0.00 0.00 62 1016.8
20260506161151 5 209 0.0 6.4 0.00 0.00 0.00 61 1016.8
20260506161104 5 125 0.0 6.4 0.00 0.00 0.00 62 1016.8
20260506160806 5 245 0.0 6.4 0.00 0.00 0.00 60 1016.8
20260506160620 5 238 0.0 6.4 0.00 0.00 0.00 61 1016.8
20260506160405 5 233 0.0 6.4 0.00 0.00 0.00 61 1016.8
20260506160334 5 231 0.0 6.4 0.00 0.00 0.00 62 1016.8
20260506160206 5 231 0.0 6.4 0.00 0.00 0.00 62 1016.8
20260506160100 5 233 0.0 6.4 0.00 0.00 0.00 62 1016.8
20260506160048 5 233 0.0 6.4 0.00 0.00 0.00 61 1016.8
20260506155620 5 224 0.0 4.8 0.00 0.00 0.00 61 1016.8
20260506155405 5 113 0.0 4.8 0.00 0.00 0.00 61 1016.8
20260506155310 5 113 0.0 4.8 0.00 0.00 0.00 61 1016.8
20260506155211 5 214 0.0 4.8 0.00 0.00 0.00 61 1016.8
20260506155044 5 214 0.0 4.8 0.00 0.00 0.00 61 1016.8
20260506155021 5 214 0.0 4.8 0.00 0.00 0.00 61 1016.8
20260506154610 4 235 0.0 6.4 0.00 0.00 0.00 62 1016.8
20260506154408 4 235 0.0 9.7 0.00 0.00 0.00 62 1016.7
20260506154315 4 235 0.0 9.7 0.00 0.00 0.00 62 1016.7
20260506154306 4 235 0.0 9.7 0.00 0.00 0.00 62 1016.7
20260506154044 4 235 0.0 14.5 0.00 0.00 0.00 62 1016.7
20260506154038 4 235 0.0 14.5 0.00 0.00 0.00 62 1016.7
20260506154012 4 235 0.0 14.5 0.00 0.00 0.00 62 1016.7
20260506153558 4 226 0.0 14.5 0.00 0.00 0.00 61 1016.6
20260506153352 4 252 0.0 14.5 0.00 0.00 0.00 61 1016.7
20260506153234 5 251 0.0 14.5 0.00 0.00 0.00 61 1016.6
20260506153153 5 251 0.0 14.5 0.00 0.00 0.00 61 1016.6
20260506152951 5 244 0.0 11.3 0.00 0.00 0.00 62 1016.7
20260506152754 5 224 0.0 8.0 0.00 0.00 0.00 61 1016.6
20260506152732 5 224 0.0 8.0 0.00 0.00 0.00 61 1016.7
20260506152554 5 224 0.0 8.0 0.00 0.00 0.00 61 1016.7
20260506152456 5 68 0.0 8.0 0.00 0.00 0.00 61 1016.6
20260506152231 5 68 0.0 8.0 0.00 0.00 0.00 61 1016.7
20260506152150 5 193 0.0 8.0 0.00 0.00 0.00 61 1016.7
20260506151947 5 213 0.0 8.0 0.00 0.00 0.00 62 1016.7
20260506151731 4 200 0.0 6.4 0.00 0.00 0.00 62 1016.7
20260506151549 4 144 0.0 4.8 0.00 0.00 0.00 63 1016.6
20260506151330 4 265 0.0 4.8 0.00 0.00 0.00 63 1016.7
20260506151229 5 265 0.0 4.8 0.00 0.00 0.00 63 1016.7
20260506151130 4 265 0.0 4.8 0.00 0.00 0.00 64 1016.6
20260506150931 4 220 0.0 4.8 0.00 0.00 0.00 64 1016.7
20260506150832 4 220 0.0 4.8 0.00 0.00 0.00 64 1016.7
20260506150731 4 220 0.0 4.8 0.00 0.00 0.00 64 1016.7
20260506150505 4 220 0.0 4.8 0.00 0.00 0.00 64 1016.7
20260506150246 4 219 0.0 14.5 0.00 0.00 0.00 64 1016.6
20260506150211 4 219 0.0 14.5 0.00 0.00 0.00 64 1016.6
20260506150053 4 197 0.0 14.5 0.00 0.00 0.00 65 1016.6
20260506145844 4 240 0.0 14.5 0.00 0.00 0.00 64 1016.7
20260506145707 4 131 0.0 14.5 0.00 0.00 0.00 64 1016.7
20260506145640 4 131 0.0 14.5 0.00 0.00 0.00 64 1016.7
20260506145438 3 230 0.0 9.7 0.00 0.00 0.00 62 1016.7
20260506145237 3 230 0.0 14.5 0.00 0.00 0.00 63 1016.8
20260506145205 3 219 0.0 14.5 0.00 0.00 0.00 63 1016.8
20260506145037 3 214 0.0 14.5 0.00 0.00 0.00 63 1016.8
20260506144932 3 241 0.0 14.5 0.00 0.00 0.00 63 1016.7
20260506144706 3 235 0.0 14.5 0.00 0.00 0.00 63 1016.7
20260506144636 3 237 0.0 14.5 0.00 0.00 0.00 63 1016.7
20260506144458 3 259 0.0 9.7 0.00 0.00 0.00 64 1016.7
20260506144448 3 230 0.0 14.5 0.00 0.00 0.00 63 1016.7
20260506144426 3 259 0.0 9.7 0.00 0.00 0.00 64 1016.7
20260506144040 3 259 0.0 9.7 0.00 0.00 0.00 64 1016.7
20260506143840 3 259 0.0 9.7 0.00 0.00 0.00 64 1016.7
20260506143640 3 244 0.0 9.7 0.00 0.00 0.00 64 1016.6
20260506143636 3 243 0.0 9.7 0.00 0.00 0.00 64 1016.7
20260506143506 3 243 0.0 9.7 0.00 0.00 0.00 64 1016.6
20260506143441 3 243 0.0 9.7 0.00 0.00 0.00 64 1016.6
20260506143418 3 243 0.0 9.7 0.00 0.00 0.00 64 1016.6
20260506143037 3 243 0.0 9.7 0.00 0.00 0.00 64 1016.6
20260506142829 3 241 0.0 9.7 0.00 0.00 0.00 64 1016.5
20260506142638 3 234 0.0 6.4 0.00 0.00 0.00 65 1016.6
20260506142631 3 235 0.0 6.4 0.00 0.00 0.00 65 1016.6
20260506142442 3 234 0.0 6.4 0.00 0.00 0.00 65 1016.6
20260506142437 3 234 0.0 6.4 0.00 0.00 0.00 65 1016.6
20260506142404 3 234 0.0 6.4 0.00 0.00 0.00 65 1016.6
20260506142032 3 234 0.0 6.4 0.00 0.00 0.00 64 1016.7
20260506141830 3 252 0.0 11.3 0.00 0.00 0.00 64 1016.6
20260506141729 3 252 0.0 11.3 0.00 0.00 0.00 64 1016.6
20260506141636 3 252 0.0 11.3 0.00 0.00 0.00 64 1016.6
20260506141433 3 244 0.0 11.3 0.00 0.00 0.00 65 1016.6
20260506141240 3 252 0.0 11.3 0.00 0.00 0.00 64 1016.7
20260506141135 3 250 0.0 11.3 0.00 0.00 0.00 64 1016.7
20260506141032 3 254 0.0 11.3 0.00 0.00 0.00 65 1016.7
20260506140830 3 241 0.0 6.4 0.00 0.00 0.00 65 1016.6
20260506140635 3 240 0.0 6.4 0.00 0.00 0.00 65 1016.6
20260506140630 3 240 0.0 6.4 0.00 0.00 0.00 65 1016.7
20260506140532 3 243 0.0 6.4 0.00 0.00 0.00 65 1016.6
20260506140231 3 241 0.0 8.0 0.00 0.00 0.00 65 1016.6
20260506140135 3 240 0.0 8.0 0.00 0.00 0.00 66 1016.6
20260506140030 3 234 0.0 8.0 0.00 0.00 0.00 66 1016.6
20260506135934 3 240 0.0 8.0 0.00 0.00 0.00 67 1016.5
20260506135915 3 233 0.0 8.0 0.00 0.00 0.00 67 1016.5
20260506135632 3 238 0.0 8.0 0.00 0.00 0.00 67 1016.5
20260506135430 3 238 0.0 8.0 0.00 0.00 0.00 67 1016.6
20260506135230 3 248 0.0 8.0 0.00 0.00 0.00 68 1016.5
20260506135135 3 248 0.0 8.0 0.00 0.00 0.00 68 1016.5
20260506135031 3 248 0.0 8.0 0.00 0.00 0.00 68 1016.4
20260506135015 3 235 0.0 6.4 0.00 0.00 0.00 69 1016.5
20260506134932 3 235 0.0 6.4 0.00 0.00 0.00 69 1016.5
20260506134630 3 235 0.0 6.4 0.00 0.00 0.00 69 1016.4
20260506134431 3 209 0.0 4.8 0.00 0.00 0.00 69 1016.4
20260506134231 3 209 0.0 8.0 0.00 0.00 0.00 70 1016.4
20260506134139 3 210 0.0 8.0 0.00 0.00 0.00 70 1016.4
20260506134030 3 228 0.0 8.0 0.00 0.00 0.00 70 1016.5
20260506133919 3 233 0.0 8.0 0.00 0.00 0.00 70 1016.4
20260506133908 3 233 0.0 8.0 0.00 0.00 0.00 70 1016.4
20260506133609 3 233 0.0 8.0 0.00 0.00 0.00 70 1016.5
20260506133407 3 234 0.0 6.4 0.00 0.00 0.00 70 1016.4
20260506133311 3 233 0.0 8.0 0.00 0.00 0.00 70 1016.4
20260506133136 3 241 0.0 8.0 0.00 0.00 0.00 70 1016.4
20260506133004 3 240 0.0 8.0 0.00 0.00 0.00 70 1016.4
20260506132809 3 250 0.0 8.0 0.00 0.00 0.00 71 1016.4
20260506132636 3 250 0.0 9.7 0.00 0.00 0.00 71 1016.4
20260506132606 3 250 0.0 9.7 0.00 0.00 0.00 71 1016.3
20260506132348 3 245 0.0 9.7 0.00 0.00 0.00 71 1016.4
20260506132148 3 238 0.0 9.7 0.00 0.00 0.00 71 1016.4
20260506132136 3 238 0.0 9.7 0.00 0.00 0.00 71 1016.3
20260506132051 3 255 0.0 9.7 0.00 0.00 0.00 71 1016.3
20260506131748 3 257 0.0 9.7 0.00 0.00 0.00 71 1016.3
20260506131633 3 254 0.0 8.0 0.00 0.00 0.00 71 1016.3
20260506131541 3 245 0.0 11.3 0.00 0.00 0.00 71 1016.3
20260506131340 3 238 0.0 11.3 0.00 0.00 0.00 71 1016.3
20260506131133 3 224 0.0 11.3 0.00 0.00 0.00 71 1016.3
20260506130939 3 226 0.0 11.3 0.00 0.00 0.00 71 1016.3
20260506130742 3 234 0.0 11.3 0.00 0.00 0.00 70 1016.2
20260506130632 3 255 0.0 11.3 0.00 0.00 0.00 71 1016.1
20260506130539 3 250 0.0 8.0 0.00 0.00 0.00 71 1016.1
20260506130439 3 254 0.0 8.0 0.00 0.00 0.00 71 1016.2
20260506130129 3 254 0.0 11.3 0.00 0.00 0.00 70 1016.1
20260506125943 3 251 0.0 11.3 0.00 0.00 0.00 70 1016.1
20260506125739 3 250 0.0 11.3 0.00 0.00 0.00 70 1016.1
20260506125629 3 251 0.0 11.3 0.00 0.00 0.00 70 1016.0
20260506125538 3 237 0.0 11.3 0.00 0.00 0.00 70 1016.1
20260506125340 3 255 0.0 11.3 0.00 0.00 0.00 71 1016.1
20260506125131 3 238 0.0 9.7 0.00 0.00 0.00 72 1016.0
20260506125005 3 243 0.0 6.4 0.00 0.00 0.00 72 1016.0
20260506124938 3 238 0.0 9.7 0.00 0.00 0.00 72 1015.9
20260506124919 3 243 0.0 6.4 0.00 0.00 0.00 72 1015.9
20260506124536 3 244 0.0 6.4 0.00 0.00 0.00 71 1015.9
20260506124337 3 244 0.0 6.4 0.00 0.00 0.00 71 1015.9
20260506124140 3 243 0.0 6.4 0.00 0.00 0.00 71 1015.8
20260506124129 3 243 0.0 6.4 0.00 0.00 0.00 71 1015.9
20260506123938 3 234 0.0 9.7 0.00 0.00 0.00 72 1015.8
20260506123736 3 244 0.0 9.7 0.00 0.00 0.00 72 1015.8
20260506123631 3 244 0.0 9.7 0.00 0.00 0.00 72 1015.8
20260506123537 3 244 0.0 9.7 0.00 0.00 0.00 72 1015.8
20260506123438 3 243 0.0 9.7 0.00 0.00 0.00 71 1015.8
20260506123136 3 243 0.0 9.7 0.00 0.00 0.00 72 1015.7
20260506123111 3 252 0.0 9.7 0.00 0.00 0.00 73 1015.7
20260506122939 3 238 0.0 6.4 0.00 0.00 0.00 73 1015.7
20260506122739 3 238 0.0 6.4 0.00 0.00 0.00 73 1015.7
20260506122609 3 238 0.0 6.4 0.00 0.00 0.00 74 1015.7
20260506122535 3 238 0.0 6.4 0.00 0.00 0.00 74 1015.8
20260506122335 3 240 0.0 6.4 0.00 0.00 0.00 74 1015.6
20260506122135 3 213 0.0 4.8 0.00 0.00 0.00 75 1015.7
20260506122109 3 212 0.0 3.2 0.00 0.00 0.00 75 1015.7
20260506121934 2 206 0.0 3.2 0.00 0.00 0.00 76 1015.6
20260506121833 2 206 0.0 3.2 0.00 0.00 0.00 76 1015.6
20260506121611 2 206 0.0 3.2 0.00 0.00 0.00 77 1015.6
20260506121533 2 206 0.0 3.2 0.00 0.00 0.00 77 1015.5
20260506121334 2 204 0.0 3.2 0.00 0.00 0.00 77 1015.5
20260506121136 1 203 0.0 0.0 0.00 0.00 0.00 81 1015.4
20260506121103 1 203 0.0 1.6 0.00 0.00 0.00 81 1015.4
20260506120928 1 203 0.0 1.6 0.00 0.00 0.00 81 1015.4
20260506120848 1 203 0.0 3.2 0.00 0.00 0.00 81 1015.3
20260506120838 1 203 0.0 3.2 0.00 0.00 0.00 81 1015.3
20260506120504 1 203 0.0 3.2 0.00 0.00 0.00 81 1015.3
20260506120404 1 203 0.0 3.2 0.00 0.00 0.00 81 1015.3
20260506120106 1 203 0.0 3.2 0.00 0.00 0.00 81 1015.3
20260506120034 1 203 0.0 3.2 0.00 0.00 0.00 82 1015.3
20260506115908 1 203 0.0 1.6 0.00 0.00 0.00 82 1015.3
20260506115707 1 203 0.0 1.6 0.00 0.00 0.00 83 1015.3
20260506115532 1 203 0.0 1.6 0.00 0.00 0.00 83 1015.3
20260506115504 1 203 0.0 1.6 0.00 0.00 0.00 83 1015.3
20260506115306 1 203 0.0 1.6 0.00 0.00 0.00 84 1015.3
20260506115038 1 203 0.0 1.6 0.00 0.00 0.00 84 1015.2
20260506114838 1 203 0.0 1.6 0.00 0.00 0.00 84 1015.3
20260506114735 0 203 0.0 1.6 0.00 0.00 0.00 84 1015.1
20260506114531 0 203 0.0 1.6 0.00 0.00 0.00 84 1015.0
20260506114437 0 203 0.0 1.6 0.00 0.00 0.00 84 1015.1
20260506114232 0 203 0.0 1.6 0.00 0.00 0.00 84 1015.1
20260506114032 0 203 0.0 1.6 0.00 0.00 0.00 83 1015.0
20260506113831 0 203 0.0 1.6 0.00 0.00 0.00 83 1014.8
20260506113630 0 203 0.0 1.6 0.00 0.00 0.00 83 1014.8
20260506113529 0 203 0.0 1.6 0.00 0.00 0.00 83 1014.7
20260506113428 0 203 0.0 1.6 0.00 0.00 0.00 83 1014.8
20260506113226 0 203 0.0 1.6 0.00 0.00 0.00 83 1014.8
20260506113134 0 203 0.0 1.6 0.00 0.00 0.00 83 1014.8
20260506113026 0 203 0.0 1.6 0.00 0.00 0.00 83 1014.8
20260506112826 0 203 0.0 1.6 0.00 0.00 0.00 83 1014.8
20260506112625 0 203 0.0 0.0 0.00 0.00 0.00 83 1014.7
20260506112531 0 203 0.0 0.0 0.00 0.00 0.00 83 1014.6
20260506112426 0 203 0.0 0.0 0.00 0.00 0.00 83 1014.6
20260506112324 0 203 0.0 0.0 0.00 0.00 0.00 83 1014.7
20260506112034 -17 0.0 0.0 0.00 0.00 0.00 1014.7
20260506111826 0 203 0.0 0.0 0.00 0.00 0.00 83 1014.6
20260506111604 0 203 0.0 0.0 0.00 0.00 0.00 83 1014.6
20260506111511 0 203 0.0 0.0 0.00 0.00 0.00 83 1014.6
20260506111404 0 203 0.0 0.0 0.00 0.00 0.00 83 1014.6
20260506111203 0 203 0.0 0.0 0.00 0.00 0.00 83 1014.5
20260506111010 0 203 0.0 0.0 0.00 0.00 0.00 83 1014.5
20260506110936 0 203 0.0 0.0 0.00 0.00 0.00 83 1014.5
20260506110733 0 203 0.0 0.0 0.00 0.00 0.00 83 1014.5
20260506110631 0 203 0.0 0.0 0.00 0.00 0.00 83 1014.6
20260506110506 0 203 0.0 0.0 0.00 0.00 0.00 83 1014.6
20260506110330 0 203 0.0 0.0 0.00 0.00 0.00 83 1014.6
20260506110132 0 203 0.0 0.0 0.00 0.00 0.00 83 1014.6
20260506110006 0 203 0.0 1.6 0.00 0.00 0.00 83 1014.7
20260506105931 0 203 0.0 1.6 0.00 0.00 0.00 83 1014.7
20260506105726 0 203 0.0 1.6 0.00 0.00 0.00 83 1014.7
20260506105506 0 203 0.0 1.6 0.00 0.00 0.00 83 1014.8
20260506105325 0 203 0.0 1.6 0.00 0.00 0.00 83 1014.7
20260506105123 0 203 0.0 1.6 0.00 0.00 0.00 84 1014.8
20260506105026 0 203 0.0 1.6 0.00 0.00 0.00 84 1014.8
20260506105007 0 203 0.0 1.6 0.00 0.00 0.00 84 1014.8
20260506104723 0 203 0.0 1.6 0.00 0.00 0.00 84 1014.8
20260506104508 0 203 0.0 0.0 0.00 0.00 0.00 84 1015.1
20260506104311 0 203 0.0 0.0 0.00 0.00 0.00 84 1015.0
20260506104110 0 203 0.0 0.0 0.00 0.00 0.00 84 1015.0
20260506104018 0 203 0.0 0.0 0.00 0.00 0.00 84 1015.0
20260506104009 0 203 0.0 0.0 0.00 0.00 0.00 84 1015.0
20260506103707 0 203 0.0 1.6 0.00 0.00 0.00 84 1014.8
20260506103512 0 203 0.0 1.6 0.00 0.00 0.00 84 1014.8
20260506103507 0 203 0.0 1.6 0.00 0.00 0.00 84 1015.0
20260506103306 0 203 0.0 1.6 0.00 0.00 0.00 84 1015.0
20260506103248 0 203 0.0 1.6 0.00 0.00 0.00 84 1015.0
20260506103233 0 203 0.0 1.6 0.00 0.00 0.00 84 1015.0
20260506102903 0 203 0.0 1.6 0.00 0.00 0.00 84 1014.8
20260506102702 0 203 0.0 1.6 0.00 0.00 0.00 83 1015.0
20260506102513 0 203 0.0 1.6 0.00 0.00 0.00 83 1014.8
20260506102503 0 203 0.0 1.6 0.00 0.00 0.00 83 1015.0
20260506102401 -1 203 0.0 0.0 0.00 0.00 0.00 83 1014.8
20260506102248 -1 203 0.0 0.0 0.00 0.00 0.00 82 1014.8
20260506102233 -1 203 0.0 0.0 0.00 0.00 0.00 83 1014.8
20260506101905 -1 203 0.0 0.0 0.00 0.00 0.00 82 1014.7
20260506101708 0 203 0.0 1.6 0.00 0.00 0.00 82 1014.7
20260506101506 0 203 0.0 1.6 0.00 0.00 0.00 82 1014.7
20260506101436 0 203 0.0 1.6 0.00 0.00 0.00 82 1014.7
20260506101245 0 203 0.0 1.6 0.00 0.00 0.00 82 1014.7
20260506101229 0 203 0.0 1.6 0.00 0.00 0.00 82 1014.6
20260506100813 0 203 0.0 1.6 0.00 0.00 0.00 82 1014.6
20260506100611 0 203 0.0 0.0 0.00 0.00 0.00 81 1014.5
20260506100504 0 203 0.0 0.0 0.00 0.00 0.00 81 1014.5
20260506100411 0 203 0.0 0.0 0.00 0.00 0.00 81 1014.5
20260506100209 0 203 0.0 0.0 0.00 0.00 0.00 81 1014.5
20260506100009 0 203 0.0 0.0 0.00 0.00 0.00 81 1014.4
20260506095954 0 203 0.0 0.0 0.00 0.00 0.00 81 1014.4
20260506095909 0 203 0.0 0.0 0.00 0.00 0.00 81 1014.4
20260506095557 0 203 0.0 0.0 0.00 0.00 0.00 81 1014.5
20260506095444 0 203 0.0 0.0 0.00 0.00 0.00 81 1014.5
20260506095357 0 203 0.0 0.0 0.00 0.00 0.00 81 1014.5
20260506095156 0 203 0.0 0.0 0.00 0.00 0.00 81 1014.5
20260506094935 0 203 0.0 0.0 0.00 0.00 0.00 80 1014.5
20260506094757 0 203 0.0 0.0 0.00 0.00 0.00 80 1014.5
20260506094557 0 203 0.0 0.0 0.00 0.00 0.00 80 1014.6
20260506094430 0 203 0.0 0.0 0.00 0.00 0.00 80 1014.5
20260506094358 0 203 0.0 1.6 0.00 0.00 0.00 80 1014.5
20260506094259 0 203 0.0 1.6 0.00 0.00 0.00 80 1014.6
20260506093931 0 203 0.0 1.6 0.00 0.00 0.00 80 1014.5
20260506093743 0 203 0.0 1.6 0.00 0.00 0.00 80 1014.5
20260506093543 0 203 0.0 1.6 0.00 0.00 0.00 80 1014.4
20260506093431 0 203 0.0 1.6 0.00 0.00 0.00 80 1014.4
20260506093343 0 203 0.0 1.6 0.00 0.00 0.00 80 1014.4
20260506093144 0 203 0.0 0.0 0.00 0.00 0.00 79 1014.4
20260506092931 0 203 0.0 0.0 0.00 0.00 0.00 79 1014.3
20260506092746 0 203 0.0 0.0 0.00 0.00 0.00 79 1014.3
20260506092544 0 203 0.0 0.0 0.00 0.00 0.00 79 1014.3
20260506092430 0 203 0.0 0.0 0.00 0.00 0.00 79 1014.4
20260506092342 0 203 0.0 0.0 0.00 0.00 0.00 79 1014.4
20260506092144 0 203 0.0 0.0 0.00 0.00 0.00 79 1014.4
20260506091944 0 203 0.0 0.0 0.00 0.00 0.00 79 1014.3
20260506091931 0 203 0.0 0.0 0.00 0.00 0.00 79 1014.4
20260506091844 0 203 0.0 0.0 0.00 0.00 0.00 79 1014.3
20260506091542 0 203 0.0 0.0 0.00 0.00 0.00 78 1014.3
20260506091431 0 203 0.0 0.0 0.00 0.00 0.00 78 1014.3
20260506091332 0 203 0.0 0.0 0.00 0.00 0.00 78 1014.3
20260506091132 0 203 0.0 0.0 0.00 0.00 0.00 78 1014.4
20260506090933 0 203 0.0 0.0 0.00 0.00 0.00 76 1014.4
20260506090738 0 203 0.0 0.0 0.00 0.00 0.00 76 1014.5
20260506090526 0 203 0.0 1.6 0.00 0.00 0.00 76 1014.5
20260506090404 0 203 0.0 1.6 0.00 0.00 0.00 76 1014.4
20260506090326 0 203 0.0 1.6 0.00 0.00 0.00 76 1014.4
20260506090230 0 203 0.0 1.6 0.00 0.00 0.00 76 1014.5
20260506085920 0 203 0.0 1.6 0.00 0.00 0.00 76 1014.5
20260506085832 0 203 0.0 1.6 0.00 0.00 0.00 76 1014.5
20260506085719 0 203 0.0 1.6 0.00 0.00 0.00 76 1014.5
20260506085517 0 203 0.0 1.6 0.00 0.00 0.00 75 1014.4
20260506085312 0 203 0.0 1.6 0.00 0.00 0.00 75 1014.4
20260506085108 0 203 0.0 1.6 0.00 0.00 0.00 75 1014.4
20260506084907 0 203 0.0 1.6 0.00 0.00 0.00 74 1014.3
20260506084829 0 203 0.0 1.6 0.00 0.00 0.00 74 1014.3
20260506084713 0 203 0.0 1.6 0.00 0.00 0.00 73 1014.3
20260506084503 0 203 0.0 0.0 0.00 0.00 0.00 73 1014.2
20260506084333 0 203 0.0 0.0 0.00 0.00 0.00 73 1014.2
20260506084303 0 203 0.0 0.0 0.00 0.00 0.00 72 1014.2
20260506084104 1 203 0.0 0.0 0.00 0.00 0.00 72 1014.2
20260506083903 1 203 0.0 0.0 0.00 0.00 0.00 72 1014.1
20260506083829 1 203 0.0 0.0 0.00 0.00 0.00 72 1014.1
20260506083637 1 203 0.0 0.0 0.00 0.00 0.00 72 1014.1
20260506083426 1 203 0.0 0.0 0.00 0.00 0.00 72 1014.0
20260506083329 1 203 0.0 0.0 0.00 0.00 0.00 72 1014.0
20260506083226 1 203 0.0 0.0 0.00 0.00 0.00 71 1014.1
20260506083206 1 203 0.0 0.0 0.00 0.00 0.00 71 1014.1
20260506083110 1 203 0.0 0.0 0.00 0.00 0.00 71 1014.0
20260506082826 1 203 0.0 0.0 0.00 0.00 0.00 71 1014.0
20260506082630 1 203 0.0 0.0 0.00 0.00 0.00 71 1014.0
20260506082411 1 203 0.0 0.0 0.00 0.00 0.00 71 1014.0
20260506082326 1 203 0.0 0.0 0.00 0.00 0.00 71 1014.0
20260506082204 1 203 0.0 0.0 0.00 0.00 0.00 70 1014.0
20260506082108 1 203 0.0 0.0 0.00 0.00 0.00 70 1014.1
20260506082053 1 203 0.0 0.0 0.00 0.00 0.00 70 1014.1
20260506081803 1 203 0.0 0.0 0.00 0.00 0.00 70 1014.1
20260506081534 1 203 0.0 0.0 0.00 0.00 0.00 70 1014.0
20260506081430 1 203 0.0 0.0 0.00 0.00 0.00 70 1014.0
20260506081317 1 203 0.0 0.0 0.00 0.00 0.00 70 1014.0
20260506081126 1 203 0.0 0.0 0.00 0.00 0.00 69 1014.1
20260506081106 1 203 0.0 0.0 0.00 0.00 0.00 69 1014.1
20260506081037 1 203 0.0 0.0 0.00 0.00 0.00 69 1014.0
20260506080726 1 203 0.0 0.0 0.00 0.00 0.00 69 1014.1
20260506080527 1 203 0.0 0.0 0.00 0.00 0.00 69 1014.2
20260506080426 1 203 0.0 0.0 0.00 0.00 0.00 69 1014.2
20260506080306 1 203 0.0 0.0 0.00 0.00 0.00 68 1014.2
20260506080126 1 203 0.0 0.0 0.00 0.00 0.00 68 1014.2
20260506073502 2 203 0.0 0.0 0.00 0.00 0.00 68 1014.0
20260506073456 2 203 0.0 1.6 0.00 0.00 0.00 68 1013.9
20260506073429 2 203 0.0 1.6 0.00 0.00 0.00 68 1014.0
20260506073132 2 203 0.0 0.0 0.00 0.00 0.00 68 1013.9
20260506072827 2 203 0.0 1.6 0.00 0.00 0.00 68 1013.9
20260506072707 2 203 0.0 1.6 0.00 0.00 0.00 68 1013.8
20260506072626 2 203 0.0 3.2 0.00 0.00 0.00 68 1013.8
20260506072510 2 203 0.0 3.2 0.00 0.00 0.00 68 1013.9
20260506072455 2 203 0.0 3.2 0.00 0.00 0.00 68 1013.9
20260506072423 2 203 0.0 3.2 0.00 0.00 0.00 68 1014.0
20260506072024 2 203 0.0 3.2 0.00 0.00 0.00 67 1013.8
20260506071826 2 203 0.0 3.2 0.00 0.00 0.00 67 1013.8
20260506071706 2 203 0.0 3.2 0.00 0.00 0.00 67 1013.7
20260506071629 2 204 0.0 1.6 0.00 0.00 0.00 67 1013.7
20260506071518 2 204 0.0 0.0 0.00 0.00 0.00 67 1013.8
20260506071223 2 204 0.0 0.0 0.00 0.00 0.00 66 1013.7
20260506071204 2 204 0.0 0.0 0.00 0.00 0.00 66 1013.8
20260506071015 2 204 0.0 0.0 0.00 0.00 0.00 66 1013.6
20260506070957 2 204 0.0 1.6 0.00 0.00 0.00 67 1013.7
20260506070933 2 204 0.0 1.6 0.00 0.00 0.00 67 1013.7
20260506070613 2 204 0.0 1.6 0.00 0.00 0.00 67 1013.7
20260506070410 2 204 0.0 1.6 0.00 0.00 0.00 67 1013.7
20260506070211 2 204 0.0 1.6 0.00 0.00 0.00 67 1013.8
20260506070206 2 204 0.0 1.6 0.00 0.00 0.00 67 1013.7
20260506062441 3 204 0.0 1.6 0.00 0.00 0.00 65 1013.9
20260506062137 3 204 0.0 1.6 0.00 0.00 0.00 65 1013.7
20260506061939 3 204 0.0 1.6 0.00 0.00 0.00 65 1013.7
20260506061933 3 204 0.0 1.6 0.00 0.00 0.00 65 1013.7
20260506061907 3 204 0.0 1.6 0.00 0.00 0.00 65 1013.8
20260506061532 3 204 0.0 1.6 0.00 0.00 0.00 65 1013.6
20260506061334 3 204 0.0 1.6 0.00 0.00 0.00 66 1013.8
20260506061135 -17 204 0.0 0.0 0.00 0.00 0.00 1013.8
20260506060954 3 210 0.0 4.8 0.00 0.00 0.00 67 1013.8
20260506060936 3 210 0.0 4.8 0.00 0.00 0.00 67 1013.7
20260506060911 3 210 0.0 4.8 0.00 0.00 0.00 67 1013.7
20260506060531 3 210 0.0 4.8 0.00 0.00 0.00 67 1013.8
20260506060332 3 210 0.0 4.8 0.00 0.00 0.00 67 1013.7
20260506060131 3 210 0.0 4.8 0.00 0.00 0.00 67 1013.7
20260506051345 3 209 0.0 1.6 0.00 0.00 0.00 65 1013.5
20260506051130 3 209 0.0 1.6 0.00 0.00 0.00 65 1013.5
20260506051007 3 209 0.0 1.6 0.00 0.00 0.00 65 1013.4
20260506050932 3 209 0.0 1.6 0.00 0.00 0.00 65 1013.3
20260506050807 3 209 0.0 1.6 0.00 0.00 0.00 65 1013.2
20260506050736 3 209 0.0 1.6 0.00 0.00 0.00 65 1013.2
20260506050731 3 209 0.0 1.6 0.00 0.00 0.00 65 1013.3
20260506050316 3 209 0.0 1.6 0.00 0.00 0.00 65 1013.2
20260506050114 3 209 0.0 1.6 0.00 0.00 0.00 65 1013.2
20260506045104 3 209 0.0 1.6 0.00 0.00 0.00 64 1013.2
20260506045003 4 209 0.0 1.6 0.00 0.00 0.00 64 1013.2
20260506044944 4 209 0.0 1.6 0.00 0.00 0.00 64 1013.1
20260506044721 4 209 0.0 1.6 0.00 0.00 0.00 64 1013.1
20260506044717 4 209 0.0 1.6 0.00 0.00 0.00 64 1013.1
20260506044643 4 209 0.0 1.6 0.00 0.00 0.00 64 1013.3
20260506044246 4 214 0.0 1.6 0.00 0.00 0.00 64 1013.1
20260506044047 4 214 0.0 1.6 0.00 0.00 0.00 64 1013.2
20260506043929 4 214 0.0 1.6 0.00 0.00 0.00 64 1013.2
20260506043845 4 216 0.0 1.6 0.00 0.00 0.00 64 1013.2
20260506043726 4 274 0.0 1.6 0.00 0.00 0.00 64 1013.2
20260506043713 4 216 0.0 1.6 0.00 0.00 0.00 63 1013.1
20260506043644 4 274 0.0 1.6 0.00 0.00 0.00 64 1013.1
20260506043248 4 274 0.0 1.6 0.00 0.00 0.00 64 1013.2
20260506043134 4 274 0.0 3.2 0.00 0.00 0.00 64 1013.2
20260506042931 4 274 0.0 3.2 0.00 0.00 0.00 64 1013.2
20260506042836 4 274 0.0 3.2 0.00 0.00 0.00 64 1013.1
20260506042704 4 274 0.0 3.2 0.00 0.00 0.00 64 1013.2
20260506042643 4 274 0.0 3.2 0.00 0.00 0.00 64 1013.2
20260506042230 4 274 0.0 3.2 0.00 0.00 0.00 64 1013.1
20260506042035 4 227 0.0 1.6 0.00 0.00 0.00 64 1013.1
20260506041929 4 227 0.0 1.6 0.00 0.00 0.00 64 1013.1
20260506041832 4 227 0.0 1.6 0.00 0.00 0.00 63 1013.1
20260506041721 5 227 0.0 1.6 0.00 0.00 0.00 63 1013.1
20260506041710 4 227 0.0 1.6 0.00 0.00 0.00 63 1013.1
20260506041230 5 227 0.0 1.6 0.00 0.00 0.00 63 1013.0
20260506041032 5 227 0.0 1.6 0.00 0.00 0.00 63 1013.0
20260506040931 5 227 0.0 1.6 0.00 0.00 0.00 63 1013.0
20260506040833 5 227 0.0 1.6 0.00 0.00 0.00 63 1013.0
20260506040725 5 202 0.0 1.6 0.00 0.00 0.00 63 1013.0
20260506040714 5 227 0.0 1.6 0.00 0.00 0.00 62 1013.1
20260506040644 5 202 0.0 1.6 0.00 0.00 0.00 63 1013.0
20260506040203 5 202 0.0 3.2 0.00 0.00 0.00 63 1013.0
20260506040003 5 202 0.0 3.2 0.00 0.00 0.00 63 1013.0
20260506035919 5 202 0.0 3.2 0.00 0.00 0.00 63 1013.0
20260506035908 5 202 0.0 3.2 0.00 0.00 0.00 63 1013.1
20260506035531 5 202 0.0 4.8 0.00 0.00 0.00 63 1013.0
20260506035409 5 202 0.0 4.8 0.00 0.00 0.00 62 1013.0
20260506035330 5 213 0.0 4.8 0.00 0.00 0.00 62 1013.0
20260506035130 5 213 0.0 4.8 0.00 0.00 0.00 63 1013.1
20260506035027 5 237 0.0 4.8 0.00 0.00 0.00 63 1013.0
20260506034908 5 237 0.0 4.8 0.00 0.00 0.00 63 1013.0
20260506034734 5 237 0.0 4.8 0.00 0.00 0.00 62 1013.0
20260506034521 5 237 0.0 1.6 0.00 0.00 0.00 62 1013.0
20260506034405 5 237 0.0 3.2 0.00 0.00 0.00 61 1013.0
20260506034315 5 238 0.0 3.2 0.00 0.00 0.00 62 1013.0
20260506034115 5 237 0.0 3.2 0.00 0.00 0.00 61 1012.9
20260506033904 5 237 0.0 3.2 0.00 0.00 0.00 61 1012.9
20260506033719 5 237 0.0 3.2 0.00 0.00 0.00 61 1012.9
20260506033503 5 237 0.0 3.2 0.00 0.00 0.00 61 1012.8
20260506033407 5 237 0.0 1.6 0.00 0.00 0.00 61 1012.8
20260506033401 5 237 0.0 1.6 0.00 0.00 0.00 61 1012.8
20260506033104 5 237 0.0 1.6 0.00 0.00 0.00 60 1012.8
20260506032901 5 237 0.0 1.6 0.00 0.00 0.00 60 1012.9
20260506032708 5 223 0.0 1.6 0.00 0.00 0.00 60 1012.8
20260506032504 5 223 0.0 3.2 0.00 0.00 0.00 60 1012.8
20260506032404 5 223 0.0 3.2 0.00 0.00 0.00 60 1012.8
20260506032250 5 223 0.0 3.2 0.00 0.00 0.00 60 1012.9
20260506032049 5 223 0.0 3.2 0.00 0.00 0.00 60 1012.8
20260506031903 5 223 0.0 3.2 0.00 0.00 0.00 59 1012.8
20260506031849 5 223 0.0 3.2 0.00 0.00 0.00 59 1012.8
20260506031743 5 223 0.0 3.2 0.00 0.00 0.00 59 1012.8
20260506031444 5 223 0.0 1.6 0.00 0.00 0.00 59 1012.8
20260506031401 5 223 0.0 6.4 0.00 0.00 0.00 59 1012.8
20260506031245 5 223 0.0 6.4 0.00 0.00 0.00 59 1012.8
20260506031201 6 223 0.0 6.4 0.00 0.00 0.00 59 1012.7
20260506031138 6 223 0.0 6.4 0.00 0.00 0.00 58 1012.8
20260506030839 6 223 0.0 6.4 0.00 0.00 0.00 59 1012.7
20260506030646 6 223 0.0 6.4 0.00 0.00 0.00 58 1012.7
20260506030435 6 248 0.0 3.2 0.00 0.00 0.00 58 1012.7
20260506030400 6 248 0.0 3.2 0.00 0.00 0.00 58 1012.7
20260506030233 6 248 0.0 3.2 0.00 0.00 0.00 57 1012.6
20260506030137 6 196 0.0 3.2 0.00 0.00 0.00 57 1012.8
20260506025900 6 196 0.0 3.2 0.00 0.00 0.00 57 1012.7
20260506025832 6 196 0.0 3.2 0.00 0.00 0.00 57 1012.8
20260506025636 6 196 0.0 3.2 0.00 0.00 0.00 57 1012.7
20260506025406 6 196 0.0 3.2 0.00 0.00 0.00 57 1012.6
20260506025333 6 196 0.0 3.2 0.00 0.00 0.00 57 1012.6
20260506025200 6 195 0.0 1.6 0.00 0.00 0.00 57 1012.6
20260506025000 6 195 0.0 0.0 0.00 0.00 0.00 57 1012.5
20260506024830 6 189 0.0 0.0 0.00 0.00 0.00 56 1012.5
20260506024805 6 189 0.0 1.6 0.00 0.00 0.00 56 1012.5
20260506024608 6 189 0.0 1.6 0.00 0.00 0.00 56 1012.5
20260506024446 6 189 0.0 1.6 0.00 0.00 0.00 56 1012.4
20260506024303 6 189 0.0 4.8 0.00 0.00 0.00 56 1012.4
20260506024150 6 189 0.0 4.8 0.00 0.00 0.00 56 1012.3
20260506023949 6 189 0.0 4.8 0.00 0.00 0.00 56 1012.3
20260506023748 6 189 0.0 8.0 0.00 0.00 0.00 56 1012.3
20260506023733 6 238 0.0 8.0 0.00 0.00 0.00 55 1012.3
20260506023539 6 238 0.0 8.0 0.00 0.00 0.00 55 1012.4
20260506023310 6 238 0.0 8.0 0.00 0.00 0.00 55 1012.2
20260506023245 6 240 0.0 8.0 0.00 0.00 0.00 55 1012.2
20260506023110 6 240 0.0 8.0 0.00 0.00 0.00 54 1012.1
20260506022906 6 240 0.0 8.0 0.00 0.00 0.00 54 1012.1
20260506022745 6 240 0.0 6.4 0.00 0.00 0.00 54 1012.1
20260506022708 6 210 0.0 4.8 0.00 0.00 0.00 55 1012.1
20260506022601 6 207 0.0 4.8 0.00 0.00 0.00 54 1012.2
20260506022307 6 93 0.0 4.8 0.00 0.00 0.00 54 1012.1
20260506022245 6 83 0.0 4.8 0.00 0.00 0.00 54 1012.1
20260506022106 6 223 0.0 4.8 0.00 0.00 0.00 53 1012.1
20260506021850 6 220 0.0 1.6 0.00 0.00 0.00 54 1012.1
20260506021750 6 220 0.0 1.6 0.00 0.00 0.00 54 1012.1
20260506021651 6 220 0.0 3.2 0.00 0.00 0.00 54 1012.0
20260506021450 6 220 0.0 4.8 0.00 0.00 0.00 54 1011.9
20260506021250 6 259 0.0 4.8 0.00 0.00 0.00 54 1012.0
20260506021032 6 259 0.0 4.8 0.00 0.00 0.00 54 1012.0
20260506020940 7 237 0.0 6.4 0.00 0.00 0.00 53 1011.9
20260506020746 7 237 0.0 6.4 0.00 0.00 0.00 53 1011.9
20260506020613 7 228 0.0 8.0 0.00 0.00 0.00 54 1011.8
20260506020419 7 257 0.0 8.0 0.00 0.00 0.00 53 1011.9
20260506020214 7 258 0.0 8.0 0.00 0.00 0.00 53 1011.8
20260506020013 7 247 0.0 8.0 0.00 0.00 0.00 53 1011.8
20260506015813 7 231 0.0 8.0 0.00 0.00 0.00 54 1011.7
20260506015743 7 245 0.0 9.7 0.00 0.00 0.00 54 1011.7
20260506015611 7 221 0.0 9.7 0.00 0.00 0.00 54 1011.7
20260506015408 7 221 0.0 9.7 0.00 0.00 0.00 53 1011.6
20260506015234 7 221 0.0 9.7 0.00 0.00 0.00 53 1011.5
20260506015205 7 221 0.0 9.7 0.00 0.00 0.00 52 1011.5
20260506015004 7 245 0.0 9.7 0.00 0.00 0.00 53 1011.5
20260506014803 7 255 0.0 4.8 0.00 0.00 0.00 53 1011.5
20260506014732 7 210 0.0 3.2 0.00 0.00 0.00 53 1011.5
20260506014603 7 210 0.0 3.2 0.00 0.00 0.00 53 1011.5
20260506014406 7 210 0.0 3.2 0.00 0.00 0.00 53 1011.5
20260506014232 7 210 0.0 3.2 0.00 0.00 0.00 53 1011.5
20260506014135 7 210 0.0 3.2 0.00 0.00 0.00 53 1011.5
20260506014035 7 210 0.0 3.2 0.00 0.00 0.00 53 1011.4
20260506013732 7 233 0.0 3.2 0.00 0.00 0.00 53 1011.4
20260506013726 7 233 0.0 3.2 0.00 0.00 0.00 53 1011.5
20260506013533 7 193 0.0 3.2 0.00 0.00 0.00 52 1011.4
20260506013344 7 193 0.0 3.2 0.00 0.00 0.00 52 1011.4
20260506013222 7 248 0.0 3.2 0.00 0.00 0.00 52 1011.4
20260506013135 7 161 0.0 1.6 0.00 0.00 0.00 52 1011.4
20260506012934 7 161 0.0 4.8 0.00 0.00 0.00 52 1011.2
20260506012721 7 161 0.0 4.8 0.00 0.00 0.00 52 1011.1
20260506012503 7 161 0.0 4.8 0.00 0.00 0.00 52 1011.2
20260506012357 7 161 0.0 14.5 0.00 0.00 0.00 52 1011.2
20260506012221 7 161 0.0 14.5 0.00 0.00 0.00 51 1011.2
20260506012102 7 0 0.0 14.5 0.00 0.00 0.00 51 1011.1
20260506011831 7 0 0.0 14.5 0.00 0.00 0.00 51 1011.1
20260506011721 7 341 0.0 14.5 0.00 0.00 0.00 52 1011.1
20260506011624 7 216 0.0 14.5 0.00 0.00 0.00 52 1011.2
20260506011422 7 217 0.0 14.5 0.00 0.00 0.00 52 1011.0
20260506011221 8 202 0.0 3.2 0.00 0.00 0.00 51 1011.0
20260506011023 8 202 0.0 3.2 0.00 0.00 0.00 51 1010.9
20260506010823 8 238 0.0 3.2 0.00 0.00 0.00 52 1011.0
20260506010730 8 238 0.0 3.2 0.00 0.00 0.00 52 1011.0
20260506010725 8 238 0.0 3.2 0.00 0.00 0.00 52 1010.9
20260506010458 8 238 0.0 9.7 0.00 0.00 0.00 52 1010.9
20260506010451 8 238 0.0 3.2 0.00 0.00 0.00 52 1010.9
20260506010423 8 238 0.0 9.7 0.00 0.00 0.00 52 1010.9
20260506010029 8 227 0.0 9.7 0.00 0.00 0.00 52 1010.9
20260506005820 8 227 0.0 9.7 0.00 0.00 0.00 52 1010.9
20260506005706 8 237 0.0 9.7 0.00 0.00 0.00 52 1010.9
20260506005618 8 237 0.0 9.7 0.00 0.00 0.00 52 1010.9
20260506005505 8 183 0.0 8.0 0.00 0.00 0.00 52 1010.9
20260506005453 8 240 0.0 9.7 0.00 0.00 0.00 53 1010.9
20260506005423 8 183 0.0 8.0 0.00 0.00 0.00 52 1010.8
20260506005117 8 224 0.0 8.0 0.00 0.00 0.00 51 1010.9
20260506004818 8 224 0.0 8.0 0.00 0.00 0.00 51 1010.9
20260506004635 8 224 0.0 8.0 0.00 0.00 0.00 51 1010.8
20260506004617 8 224 0.0 8.0 0.00 0.00 0.00 52 1010.8
20260506004425 8 226 0.0 4.8 0.00 0.00 0.00 50 1010.8
20260506004421 -17 226 0.0 4.8 0.00 0.00 0.00 1010.8
20260506004352 8 226 0.0 4.8 0.00 0.00 0.00 50 1010.8
20260506004005 8 226 0.0 4.8 0.00 0.00 0.00 50 1010.8
20260506003806 8 226 0.0 6.4 0.00 0.00 0.00 50 1010.8
20260506003637 8 226 0.0 6.4 0.00 0.00 0.00 50 1010.8
20260506003533 8 226 0.0 6.4 0.00 0.00 0.00 50 1010.8
20260506003407 8 99 0.0 6.4 0.00 0.00 0.00 50 1010.8
20260506003108 8 223 0.0 6.4 0.00 0.00 0.00 50 1010.8
20260506002906 8 223 0.0 6.4 0.00 0.00 0.00 52 1010.7
20260506002804 8 223 0.0 6.4 0.00 0.00 0.00 49 1010.8
20260506002617 8 243 0.0 11.3 0.00 0.00 0.00 50 1010.8
20260506002507 8 243 0.0 11.3 0.00 0.00 0.00 50 1010.7
20260506002404 8 243 0.0 11.3 0.00 0.00 0.00 48 1010.7
20260506002349 8 243 0.0 11.3 0.00 0.00 0.00 50 1010.6
20260506002324 8 243 0.0 11.3 0.00 0.00 0.00 48 1010.7
20260506001906 8 243 0.0 11.3 0.00 0.00 0.00 48 1010.6
20260506001704 8 243 0.0 11.3 0.00 0.00 0.00 48 1010.6
20260506001609 8 196 0.0 6.4 0.00 0.00 0.00 49 1010.6
20260506001506 8 196 0.0 6.4 0.00 0.00 0.00 49 1010.6
20260506001345 8 183 0.0 6.4 0.00 0.00 0.00 50 1010.5
20260506001341 8 183 0.0 6.4 0.00 0.00 0.00 50 1010.5
20260506001330 8 183 0.0 6.4 0.00 0.00 0.00 50 1010.5
20260506000810 8 182 0.0 6.4 0.00 0.00 0.00 51 1010.5
20260506000601 8 255 0.0 6.4 0.00 0.00 0.00 50 1010.4
20260506000406 8 255 0.0 9.7 0.00 0.00 0.00 50 1010.4
20260506000347 8 243 0.0 9.7 0.00 0.00 0.00 50 1010.5
20260506000327 8 243 0.0 9.7 0.00 0.00 0.00 49 1010.5
20260506000009 8 257 0.0 9.7 0.00 0.00 0.00 50 1010.5
20260505235745 8 257 0.0 9.7 0.00 0.00 0.00 49 1010.4
20260505235603 8 257 0.0 11.3 0.00 0.00 0.00 48 1010.4
20260505235546 8 257 0.0 11.3 0.00 0.00 0.00 48 1010.4
20260505235447 8 252 0.0 11.3 0.00 0.00 0.00 48 1010.5
20260505235352 8 221 0.0 11.3 0.00 0.00 0.00 47 1010.4
20260505235322 8 252 0.0 11.3 0.00 0.00 0.00 47 1010.4
20260505234945 8 262 0.0 11.3 0.00 0.00 0.00 46 1010.4
20260505234730 8 234 0.0 9.7 0.00 0.00 0.00 47 1010.4
20260505234604 8 247 0.0 9.7 0.00 0.00 0.00 47 1010.4
20260505234529 8 245 0.0 9.7 0.00 0.00 0.00 47 1010.4
20260505234428 9 219 0.0 6.4 0.00 0.00 0.00 46 1010.4
20260505234102 9 226 0.0 11.3 0.00 0.00 0.00 46 1010.3
20260505233903 9 226 0.0 11.3 0.00 0.00 0.00 46 1010.4
20260505233842 9 226 0.0 16.1 0.00 0.00 0.00 46 1010.3
20260505233826 9 226 0.0 11.3 0.00 0.00 0.00 46 1010.4
20260505233500 9 226 0.0 16.1 0.00 0.00 0.00 46 1010.4
20260505233259 9 216 0.0 16.1 0.00 0.00 0.00 45 1010.3
20260505233100 10 228 0.0 16.1 0.00 0.00 0.00 46 1010.3
20260505233050 10 251 0.0 16.1 0.00 0.00 0.00 46 1010.3
20260505232910 10 197 0.0 16.1 0.00 0.00 0.00 49 1010.4
20260505232855 9 265 0.0 16.1 0.00 0.00 0.00 46 1010.3
20260505232833 10 247 0.0 9.7 0.00 0.00 0.00 49 1010.3
20260505232452 10 230 0.0 9.7 0.00 0.00 0.00 48 1010.3
20260505232248 10 251 0.0 8.0 0.00 0.00 0.00 48 1010.3
20260505232053 10 227 0.0 8.0 0.00 0.00 0.00 47 1010.2
20260505232048 10 226 0.0 8.0 0.00 0.00 0.00 47 1010.2
20260505231849 10 238 0.0 8.0 0.00 0.00 0.00 46 1010.3
20260505231833 10 245 0.0 11.3 0.00 0.00 0.00 47 1010.3
20260505231810 10 245 0.0 11.3 0.00 0.00 0.00 47 1010.3
20260505231448 10 245 0.0 11.3 0.00 0.00 0.00 47 1010.4
20260505231248 10 243 0.0 11.3 0.00 0.00 0.00 47 1010.4
20260505231130 10 243 0.0 11.3 0.00 0.00 0.00 46 1010.4
20260505231031 10 243 0.0 11.3 0.00 0.00 0.00 46 1010.4
20260505230831 10 233 0.0 11.3 0.00 0.00 0.00 47 1010.3
20260505230630 10 240 0.0 9.7 0.00 0.00 0.00 47 1010.3
20260505230531 10 247 0.0 9.7 0.00 0.00 0.00 47 1010.3
20260505230431 10 265 0.0 4.8 0.00 0.00 0.00 47 1010.4
20260505230315 10 172 0.0 6.4 0.00 0.00 0.00 47 1010.5
20260505230300 10 172 0.0 4.8 0.00 0.00 0.00 47 1010.3
20260505225803 10 172 0.0 8.0 0.00 0.00 0.00 47 1010.4
20260505225557 10 171 0.0 8.0 0.00 0.00 0.00 47 1010.4
20260505225532 10 190 0.0 8.0 0.00 0.00 0.00 47 1010.3
20260505225336 10 244 0.0 8.0 0.00 0.00 0.00 47 1010.4
20260505225330 10 233 0.0 8.0 0.00 0.00 0.00 46 1010.4
20260505225257 10 234 0.0 8.0 0.00 0.00 0.00 46 1010.4
20260505224932 10 268 0.0 8.0 0.00 0.00 0.00 46 1010.4
20260505224734 10 189 0.0 8.0 0.00 0.00 0.00 48 1010.4
20260505224531 10 240 0.0 8.0 0.00 0.00 0.00 46 1010.3
20260505224435 10 286 0.0 8.0 0.00 0.00 0.00 46 1010.4
20260505224259 10 240 0.0 17.7 0.00 0.00 0.00 48 1010.3
20260505224236 10 245 0.0 14.5 0.00 0.00 0.00 48 1010.3
20260505223935 10 192 0.0 17.7 0.00 0.00 0.00 48 1010.3
20260505223735 10 221 0.0 17.7 0.00 0.00 0.00 46 1010.4
20260505223536 10 212 0.0 17.7 0.00 0.00 0.00 46 1010.3
20260505223503 10 224 0.0 17.7 0.00 0.00 0.00 46 1010.3
20260505223335 10 251 0.0 17.7 0.00 0.00 0.00 46 1010.2
20260505223137 10 243 0.0 14.5 0.00 0.00 0.00 46 1010.2
20260505223002 10 250 0.0 11.3 0.00 0.00 0.00 46 1010.2
20260505222932 10 250 0.0 11.3 0.00 0.00 0.00 47 1010.2
20260505222836 10 241 0.0 11.3 0.00 0.00 0.00 47 1010.1
20260505222503 10 241 0.0 11.3 0.00 0.00 0.00 47 1010.2
20260505222436 10 220 0.0 11.3 0.00 0.00 0.00 46 1010.2
20260505222130 10 240 0.0 11.3 0.00 0.00 0.00 46 1010.2
20260505221939 10 204 0.0 11.3 0.00 0.00 0.00 47 1010.1
20260505221931 10 204 0.0 11.3 0.00 0.00 0.00 48 1010.2
20260505221734 10 219 0.0 11.3 0.00 0.00 0.00 45 1010.2
20260505221717 10 233 0.0 11.3 0.00 0.00 0.00 43 1010.2
20260505221659 10 219 0.0 11.3 0.00 0.00 0.00 45 1010.2
20260505221333 10 213 0.0 11.3 0.00 0.00 0.00 43 1010.2
20260505221135 10 240 0.0 1.6 0.00 0.00 0.00 45 1010.2
20260505220929 10 240 0.0 11.3 0.00 0.00 0.00 45 1010.1
20260505220816 10 240 0.0 11.3 0.00 0.00 0.00 45 1010.1
20260505220713 10 240 0.0 11.3 0.00 0.00 0.00 45 1010.1
20260505220649 10 240 0.0 11.3 0.00 0.00 0.00 45 1010.1
20260505220319 10 241 0.0 11.3 0.00 0.00 0.00 45 1010.1
20260505215929 10 258 0.0 3.2 0.00 0.00 0.00 45 1010.1
20260505215901 10 257 0.0 8.0 0.00 0.00 0.00 46 1010.2
20260505215723 10 190 0.0 11.3 0.00 0.00 0.00 46 1010.3
20260505215713 10 190 0.0 8.0 0.00 0.00 0.00 46 1010.2
20260505215643 10 190 0.0 11.3 0.00 0.00 0.00 46 1010.3
20260505215231 10 190 0.0 17.7 0.00 0.00 0.00 46 1010.2
20260505215132 10 190 0.0 17.7 0.00 0.00 0.00 46 1010.3
20260505214910 10 252 0.0 17.7 0.00 0.00 0.00 46 1010.3
20260505214808 10 252 0.0 17.7 0.00 0.00 0.00 46 1010.2
20260505214716 10 258 0.0 17.7 0.00 0.00 0.00 46 1010.3
20260505214657 10 219 0.0 17.7 0.00 0.00 0.00 48 1010.3
20260505214620 10 262 0.0 17.7 0.00 0.00 0.00 46 1010.3
20260505214212 10 251 0.0 11.3 0.00 0.00 0.00 46 1010.3
20260505214206 10 259 0.0 16.1 0.00 0.00 0.00 45 1010.3
20260505214132 10 255 0.0 16.1 0.00 0.00 0.00 44 1010.3
20260505213804 10 221 0.0 11.3 0.00 0.00 0.00 47 1010.3
20260505213706 10 224 0.0 11.3 0.00 0.00 0.00 45 1010.3
20260505213406 10 323 0.0 11.3 0.00 0.00 0.00 46 1010.3
20260505213204 10 226 0.0 6.4 0.00 0.00 0.00 47 1010.4
20260505213004 10 245 0.0 9.7 0.00 0.00 0.00 46 1010.4
20260505212909 10 220 0.0 9.7 0.00 0.00 0.00 44 1010.4
20260505212806 10 353 0.0 9.7 0.00 0.00 0.00 44 1010.4
20260505212602 10 353 0.0 17.7 0.00 0.00 0.00 44 1010.3
20260505212406 10 282 0.0 17.7 0.00 0.00 0.00 45 1010.4
20260505212342 10 282 0.0 17.7 0.00 0.00 0.00 45 1010.3
20260505212142 10 238 0.0 17.7 0.00 0.00 0.00 45 1010.4
20260505212039 10 240 0.0 17.7 0.00 0.00 0.00 48 1010.3
20260505211908 10 234 0.0 17.7 0.00 0.00 0.00 48 1010.3
20260505211741 10 241 0.0 17.7 0.00 0.00 0.00 48 1010.4
20260505211541 10 220 0.0 8.0 0.00 0.00 0.00 46 1010.4
20260505211407 10 251 0.0 9.7 0.00 0.00 0.00 47 1010.2
20260505211339 10 210 0.0 9.7 0.00 0.00 0.00 48 1010.4
20260505211129 10 252 0.0 9.7 0.00 0.00 0.00 48 1010.4
20260505210908 10 164 0.0 9.7 0.00 0.00 0.00 47 1010.5
20260505210731 10 164 0.0 9.7 0.00 0.00 0.00 47 1010.5
20260505210530 10 254 0.0 9.7 0.00 0.00 0.00 47 1010.5
20260505210416 10 254 0.0 6.4 0.00 0.00 0.00 45 1010.6
20260505210407 10 247 0.0 9.7 0.00 0.00 0.00 47 1010.5
20260505210215 10 243 0.0 16.1 0.00 0.00 0.00 45 1010.5
20260505210200 10 237 0.0 9.7 0.00 0.00 0.00 45 1010.5
20260505210121 10 228 0.0 16.1 0.00 0.00 0.00 45 1010.5
20260505205714 10 279 0.0 16.1 0.00 0.00 0.00 45 1010.5
20260505205708 10 251 0.0 16.1 0.00 0.00 0.00 48 1010.5
20260505205658 10 257 0.0 16.1 0.00 0.00 0.00 45 1010.5
20260505205640 10 251 0.0 16.1 0.00 0.00 0.00 48 1010.5